QPF
0.04 0.14 0.23 0.09 0.06 0.03 0.09 0.03 0.02 0.03 0.00 0.01 0.01 0.00 0.00 0.00 0.00 0.00 0.00 0.00 0.00 0.00 0.00 0.00 0.00 0.00 0.00 0.00 0.00 0.00 0.00 0.00 0.00 0.00 0.00 0.00 0.00 0.00 0.00 0.00 0.00 0.00 0.00 0.00 0.00 0.00 0.00 0.00 0.00
0.01 0.05 0.09 0.11 0.02 0.01 0.05 0.03 0.05 0.01 0.00 0.00 0.00 0.00 0.00 0.00 0.00 0.00 0.00 0.00 0.00 0.00 0.00 0.00 0.00 0.00 0.00 0.00 0.00 0.00 0.00 0.00 0.00 0.00 0.00 0.00 0.00 0.00 0.00 0.00 0.00 0.00 0.00 0.00 0.00 0.00 0.00 0.00 0.00
0.00 0.00 0.00 0.06 0.01 0.01 0.00 0.01 0.05 0.01 0.00 0.00 0.00 0.00 0.00 0.00 0.00 0.00 0.00 0.00 0.00 0.00 0.00 0.00 0.00 0.00 0.00 0.00 0.00 0.00 0.00 0.00 0.00 0.00 0.00 0.00 0.00 0.00 0.00 0.00 0.00 0.00 0.00 0.00 0.00 0.00 0.00 0.00 0.00
0.00 0.00 0.00 0.00 0.00 0.00 0.00 0.02 0.08 0.10 0.01 0.01 0.00 0.00 0.00 0.00 0.00 0.00 0.00 0.00 0.00 0.00 0.00 0.00 0.00 0.00 0.00 0.00 0.00 0.00 0.00 0.00 0.00 0.00 0.00 0.00 0.00 0.00 0.00 0.00 0.00 0.00 0.00 0.00 0.00 0.00 0.00 0.00 0.00
0.00 0.00 0.01 0.00 0.00 0.01 0.00 0.00 0.08 0.14 0.00 0.00 0.00 0.00 0.00 0.00 0.00 0.00 0.00 0.00 0.00 0.00 0.00 0.00 0.00 0.00 0.00 0.00 0.00 0.00 0.00 0.00 0.00 0.00 0.00 0.00 0.00 0.00 0.00 0.00 0.00 0.00 0.00 0.00 0.00 0.00 0.00 0.00 0.00
0.00 0.00 0.00 0.00 0.00 0.00 0.00 0.00 0.01 0.00 0.00 0.00 0.00 0.00 0.00 0.00 0.00 0.00 0.00 0.00 0.00 0.00 0.00 0.00 0.00 0.00 0.00 0.00 0.00 0.00 0.00 0.00 0.00 0.00 0.00 0.00 0.00 0.00 0.00 0.00 0.00 0.00 0.00 0.00 0.00 0.00 0.00 0.00 0.00
0.00 0.00 0.00 0.00 0.00 0.02 0.00 0.00 0.00 0.00 0.00 0.00 0.00 0.00 0.00 0.00 0.00 0.00 0.00 0.00 0.00 0.00 0.00 0.00 0.00 0.00 0.00 0.00 0.00 0.00 0.00 0.00 0.00 0.00 0.00 0.00 0.00 0.00 0.00 0.00 0.01 0.03 0.05 0.01 0.00 0.00 0.00 0.00 0.00
0.00 0.00 0.00 0.00 0.00 0.00 0.00 0.00 0.00 0.00 0.00 0.00 0.00 0.00 0.00 0.00 0.00 0.00 0.00 0.00 0.00 0.00 0.00 0.00 0.00 0.00 0.00 0.00 0.00 0.00 0.00 0.00 0.00 0.00 0.00 0.00 0.00 0.00 0.01 0.02 0.04 0.06 0.07 0.15 0.03 0.01 0.03 0.00 0.00
0.00 0.00 0.00 0.00 0.00 0.00 0.00 0.00 0.00 0.00 0.00 0.00 0.00 0.00 0.00 0.00 0.00 0.00 0.00 0.00 0.00 0.01 0.00 0.00 0.00 0.00 0.00 0.00 0.00 0.00 0.00 0.00 0.00 0.00 0.00 0.00 0.00 0.00 0.02 0.00 0.00 0.01 0.04 0.03 0.13 0.08 0.07 0.07 0.02
0.00 0.00 0.00 0.00 0.00 0.00 0.00 0.00 0.00 0.00 0.00 0.00 0.00 0.00 0.00 0.00 0.00 0.00 0.00 0.00 0.00 0.00 0.00 0.00 0.00 0.00 0.00 0.00 0.00 0.00 0.00 0.00 0.00 0.00 0.00 0.00 0.01 0.01 0.05 0.00 0.00 0.00 0.03 0.05 0.05 0.04 0.01 0.02 0.01
0.00 0.00 0.00 0.00 0.00 0.00 0.00 0.00 0.00 0.00 0.00 0.00 0.00 0.00 0.00 0.00 0.00 0.00 0.00 0.00 0.00 0.00 0.00 0.00 0.00 0.00 0.00 0.00 0.00 0.00 0.00 0.00 0.00 0.00 0.00 0.00 0.01 0.00 0.00 0.00 0.00 0.00 0.00 0.01 0.01 0.00 0.03 0.13 0.01
0.00 0.00 0.00 0.00 0.00 0.00 0.00 0.00 0.00 0.00 0.00 0.00 0.00 0.00 0.00 0.00 0.00 0.00 0.00 0.00 0.00 0.00 0.00 0.00 0.00 0.00 0.00 0.00 0.00 0.00 0.00 0.00 0.00 0.00 0.00 0.00 0.00 0.00 0.00 0.00 0.03 0.00 0.00 0.00 0.00 0.00 0.00 0.00 0.00
0.00 0.00 0.00 0.00 0.00 0.00 0.00 0.00 0.00 0.00 0.00 0.00 0.00 0.00 0.00 0.00 0.00 0.00 0.00 0.01 0.01 0.00 0.00 0.00 0.00 0.00 0.00 0.00 0.00 0.00 0.00 0.00 0.00 0.00 0.00 0.00 0.00 0.00 0.01 0.01 0.00 0.00 0.00 0.00 0.00 0.00 0.00 0.00 0.00
0.00 0.00 0.00 0.00 0.00 0.00 0.00 0.00 0.00 0.00 0.00 0.00 0.00 0.00 0.00 0.00 0.00 0.02 0.01 0.02 0.03 0.01 0.00 0.00 0.01 0.02 0.02 0.00 0.00 0.00 0.02 0.00 0.00 0.00 0.00 0.00 0.00 0.00 0.00 0.00 0.00 0.00 0.01 0.01 0.07 0.00 0.00 0.00 0.00
0.00 0.00 0.00 0.00 0.00 0.00 0.00 0.00 0.00 0.00 0.00 0.00 0.00 0.00 0.01 0.00 0.00 0.01 0.01 0.00 0.01 0.00 0.00 0.02 0.04 0.07 0.04 0.00 0.00 0.00 0.00 0.03 0.05 0.00 0.00 0.00 0.00 0.00 0.00 0.00 0.00 0.00 0.00 0.01 0.03 0.02 0.00 0.00 0.00
0.00 0.00 0.00 0.00 0.00 0.00 0.00 0.00 0.00 0.00 0.00 0.00 0.00 0.03 0.03 0.03 0.03 0.11 0.06 0.01 0.02 0.01 0.00 0.02 0.02 0.07 0.04 0.00 0.00 0.00 0.00 0.01 0.03 0.11 0.01 0.00 0.00 0.00 0.00 0.00 0.00 0.00 0.00 0.00 0.00 0.00 0.00 0.00 0.00
0.00 0.00 0.00 0.00 0.00 0.00 0.00 0.00 0.00 0.00 0.00 0.00 0.03 0.16 0.10 0.00 0.07 0.15 0.22 0.17 0.08 0.10 0.01 0.02 0.02 0.01 0.01 0.00 0.00 0.00 0.00 0.00 0.00 0.01 0.00 0.00 0.00 0.05 0.09 0.00 0.00 0.00 0.00 0.00 0.00 0.00 0.00 0.00 0.00
0.00 0.00 0.00 0.00 0.00 0.00 0.00 0.00 0.00 0.00 0.00 0.00 0.01 0.07 0.07 0.01 0.04 0.17 0.18 0.09 0.06 0.04 0.02 0.02 0.03 0.00 0.00 0.00 0.01 0.00 0.00 0.00 0.00 0.00 0.00 0.00 0.00 0.01 0.03 0.02 0.00 0.00 0.01 0.00 0.00 0.00 0.00 0.00 0.00
0.00 0.00 0.00 0.00 0.00 0.00 0.00 0.00 0.00 0.00 0.00 0.00 0.00 0.01 0.03 0.03 0.03 0.04 0.11 0.04 0.02 0.01 0.01 0.01 0.00 0.00 0.00 0.00 0.00 0.00 0.00 0.00 0.00 0.00 0.00 0.00 0.00 0.00 0.00 0.00 0.00 0.00 0.00 0.00 0.00 0.00 0.00 0.00 0.00
0.00 0.00 0.00 0.00 0.00 0.00 0.00 0.00 0.00 0.00 0.00 0.00 0.00 0.00 0.01 0.03 0.01 0.02 0.06 0.06 0.10 0.06 0.06 0.05 0.00 0.00 0.00 0.00 0.00 0.00 0.00 0.01 0.03 0.00 0.00 0.00 0.00 0.00 0.00 0.01 0.00 0.00 0.00 0.00 0.00 0.00 0.00 0.00 0.03
0.00 0.00 0.00 0.00 0.00 0.00 0.00 0.00 0.00 0.00 0.00 0.00 0.00 0.00 0.00 0.00 0.01 0.01 0.01 0.02 0.05 0.05 0.09 0.10 0.08 0.01 0.00 0.00 0.00 0.01 0.11 0.15 0.02 0.01 0.01 0.00 0.03 0.06 0.07 0.07 0.01 0.00 0.00 0.01 0.00 0.00 0.05 0.01 0.00
0.00 0.00 0.00 0.00 0.00 0.00 0.00 0.00 0.00 0.00 0.00 0.00 0.00 0.00 0.00 0.00 0.00 0.00 0.00 0.00 0.00 0.01 0.05 0.10 0.13 0.10 0.11 0.03 0.04 0.09 0.18 0.24 0.10 0.06 0.01 0.04 0.09 0.07 0.14 0.18 0.06 0.01 0.00 0.03 0.00 0.01 0.03 0.05 0.01
0.00 0.00 0.00 0.00 0.00 0.00 0.00 0.00 0.00 0.00 0.00 0.00 0.00 0.00 0.00 0.00 0.00 0.00 0.00 0.00 0.00 0.00 0.04 0.07 0.10 0.09 0.08 0.08 0.11 0.31 0.19 0.08 0.21 0.16 0.26 0.32 0.35 0.24 0.33 0.20 0.07 0.04 0.03 0.00 0.01 0.05 0.08 0.09 0.07
0.00 0.00 0.00 0.00 0.00 0.00 0.00 0.00 0.00 0.00 0.00 0.00 0.00 0.00 0.00 0.00 0.00 0.00 0.00 0.00 0.00 0.02 0.04 0.04 0.07 0.10 0.10 0.21 0.20 0.20 0.20 0.10 0.13 0.09 0.16 0.21 0.16 0.18 0.24 0.22 0.07 0.04 0.05 0.03 0.03 0.00 0.02 0.02 0.20
0.00 0.00 0.00 0.00 0.00 0.00 0.00 0.00 0.00 0.00 0.00 0.00 0.00 0.00 0.00 0.00 0.00 0.00 0.00 0.00 0.00 0.00 0.00 0.00 0.02 0.06 0.15 0.16 0.09 0.10 0.05 0.00 0.00 0.03 0.11 0.17 0.19 0.15 0.17 0.22 0.21 0.11 0.07 0.07 0.10 0.00 0.03 0.03 0.13
0.00 0.00 0.00 0.00 0.00 0.00 0.00 0.00 0.00 0.00 0.00 0.00 0.00 0.00 0.00 0.00 0.00 0.00 0.00 0.00 0.00 0.00 0.00 0.00 0.01 0.05 0.04 0.03 0.02 0.00 0.00 0.00 0.00 0.00 0.05 0.10 0.14 0.13 0.10 0.09 0.19 0.20 0.11 0.08 0.14 0.04 0.03 0.06 0.00
0.00 0.00 0.00 0.00 0.00 0.00 0.00 0.00 0.00 0.00 0.00 0.00 0.00 0.00 0.00 0.00 0.00 0.00 0.00 0.00 0.00 0.00 0.00 0.00 0.00 0.00 0.00 0.00 0.00 0.00 0.00 0.00 0.00 0.00 0.02 0.04 0.04 0.04 0.04 0.01 0.02 0.09 0.11 0.12 0.14 0.15 0.07 0.24 0.03
0.00 0.00 0.00 0.00 0.00 0.00 0.00 0.00 0.00 0.00 0.00 0.00 0.00 0.00 0.00 0.00 0.00 0.00 0.00 0.00 0.00 0.00 0.00 0.00 0.00 0.00 0.00 0.00 0.00 0.00 0.00 0.00 0.00 0.00 0.00 0.01 0.01 0.03 0.02 0.03 0.01 0.07 0.07 0.05 0.10 0.14 0.24 0.38 0.34
0.00 0.00 0.00 0.00 0.00 0.00 0.00 0.00 0.00 0.00 0.00 0.01 0.00 0.00 0.00 0.00 0.00 0.00 0.00 0.00 0.00 0.00 0.00 0.00 0.00 0.00 0.00 0.00 0.00 0.00 0.00 0.00 0.00 0.00 0.00 0.00 0.00 0.02 0.05 0.10 0.12 0.08 0.05 0.06 0.06 0.19 0.39 0.14 0.15
0.00 0.00 0.00 0.00 0.00 0.00 0.00 0.00 0.00 0.00 0.01 0.02 0.00 0.00 0.00 0.00 0.00 0.00 0.00 0.00 0.00 0.00 0.00 0.00 0.00 0.00 0.00 0.00 0.01 0.00 0.01 0.04 0.02 0.01 0.00 0.00 0.00 0.02 0.05 0.14 0.29 0.22 0.23 0.19 0.17 0.19 0.22 0.13 0.04
MSLP
1010.01 1010.23 1010.10 1010.33 1011.75 1012.64 1011.64 1011.22 1009.04 1008.32 1008.26 1008.21 1007.92 1008.22 1008.93 1009.40 1010.25 1011.88 1011.79 1012.49 1013.34 1014.19 1014.62 1015.12 1015.48 1015.76 1016.09 1016.31 1016.40 1016.55 1016.59 1016.73 1016.94 1017.01 1017.08 1017.21 1017.31 1017.41 1017.54 1017.64 1017.78 1017.81 1017.89 1017.98 1018.18 1018.35 1018.48 1018.54 1018.60
1010.19 1010.65 1010.62 1010.56 1011.61 1012.10 1011.60 1010.89 1009.98 1008.64 1008.27 1008.30 1007.92 1008.30 1008.96 1009.88 1010.11 1011.32 1012.06 1012.73 1013.20 1013.96 1014.56 1015.09 1015.46 1015.82 1016.16 1016.33 1016.49 1016.70 1016.91 1017.04 1017.11 1017.27 1017.35 1017.45 1017.56 1017.62 1017.66 1017.75 1017.98 1018.10 1018.20 1018.27 1018.26 1018.35 1018.53 1018.74 1018.96
1010.20 1009.79 1010.51 1010.54 1010.61 1010.68 1010.81 1011.54 1011.04 1009.00 1008.69 1008.21 1008.15 1008.00 1008.52 1009.89 1010.67 1011.42 1011.94 1012.66 1013.47 1014.20 1014.67 1015.11 1015.48 1015.83 1016.20 1016.46 1016.59 1016.76 1017.03 1017.29 1017.38 1017.47 1017.49 1017.58 1017.67 1017.75 1017.84 1017.95 1018.03 1018.19 1018.27 1018.36 1018.44 1018.54 1018.62 1018.75 1019.04
1009.60 1009.75 1010.36 1010.37 1010.24 1009.34 1010.11 1010.97 1011.10 1009.49 1008.54 1008.23 1008.22 1008.48 1008.87 1009.18 1010.39 1011.36 1012.32 1012.93 1013.66 1014.37 1014.80 1015.19 1015.56 1015.87 1016.26 1016.59 1016.80 1016.90 1017.11 1017.34 1017.52 1017.53 1017.60 1017.66 1017.70 1017.81 1018.03 1018.14 1018.17 1018.20 1018.37 1018.50 1018.63 1018.72 1018.74 1018.72 1018.97
1009.46 1009.25 1009.34 1009.70 1009.64 1009.47 1009.64 1008.99 1009.21 1009.24 1008.57 1008.48 1008.30 1008.90 1009.63 1010.22 1010.52 1011.53 1012.51 1013.04 1013.60 1014.41 1014.87 1015.30 1015.60 1015.86 1016.21 1016.61 1016.97 1017.08 1017.15 1017.38 1017.58 1017.63 1017.76 1017.81 1017.84 1017.82 1018.02 1018.24 1018.40 1018.44 1018.42 1018.64 1018.68 1018.68 1018.83 1018.90 1019.04
1009.42 1009.51 1009.59 1009.51 1008.90 1008.59 1008.70 1008.90 1008.80 1008.57 1008.37 1008.83 1008.92 1009.13 1010.29 1010.52 1010.97 1011.87 1012.31 1013.00 1013.39 1014.11 1014.76 1015.29 1015.63 1015.88 1016.15 1016.51 1016.99 1017.17 1017.16 1017.34 1017.62 1017.79 1017.84 1017.93 1017.94 1017.98 1018.04 1018.29 1018.51 1018.54 1018.55 1018.56 1018.64 1018.75 1018.79 1019.02 1019.12
1009.35 1009.23 1008.43 1008.47 1008.25 1007.49 1007.80 1007.99 1007.92 1007.81 1008.06 1008.12 1008.54 1009.44 1010.70 1011.05 1011.11 1011.69 1012.46 1013.10 1013.63 1013.96 1014.57 1015.13 1015.56 1015.89 1016.11 1016.42 1016.83 1017.11 1017.30 1017.43 1017.55 1017.73 1017.81 1017.94 1018.05 1018.10 1018.08 1018.17 1018.39 1018.69 1018.59 1018.55 1018.64 1018.81 1018.73 1018.93 1019.12
1008.21 1008.57 1007.80 1007.69 1007.33 1007.04 1006.40 1006.93 1007.27 1007.23 1007.61 1007.72 1008.18 1009.11 1010.14 1010.52 1011.23 1011.96 1012.84 1013.55 1013.99 1014.39 1014.63 1014.95 1015.38 1015.74 1016.08 1016.31 1016.61 1016.96 1017.23 1017.35 1017.43 1017.46 1017.58 1017.77 1017.87 1017.94 1017.95 1018.19 1018.40 1018.54 1018.72 1018.67 1018.59 1018.75 1018.84 1018.88 1018.93
1006.74 1007.55 1007.23 1006.55 1006.33 1006.40 1006.07 1006.35 1007.04 1006.96 1007.46 1007.62 1007.78 1008.40 1009.09 1010.04 1011.05 1012.31 1013.43 1014.20 1014.53 1014.91 1015.05 1015.07 1015.34 1015.70 1016.05 1016.28 1016.46 1016.62 1016.88 1017.12 1017.23 1017.21 1017.23 1017.43 1017.64 1017.71 1018.02 1018.18 1018.19 1018.30 1018.41 1018.43 1018.60 1018.59 1018.65 1018.81 1018.88
1005.97 1006.04 1005.82 1005.17 1005.09 1005.64 1005.51 1005.70 1006.53 1007.17 1007.43 1007.80 1007.95 1008.76 1009.43 1010.48 1011.09 1012.16 1013.27 1013.97 1014.42 1014.79 1015.09 1015.27 1015.49 1015.73 1015.92 1016.08 1016.28 1016.54 1016.59 1016.73 1016.97 1017.06 1017.11 1017.38 1017.77 1017.69 1017.96 1018.13 1018.04 1018.06 1018.12 1018.04 1018.13 1018.37 1018.49 1018.55 1018.73
1004.98 1005.04 1004.75 1004.22 1004.14 1004.52 1005.14 1005.84 1006.26 1007.06 1007.62 1007.39 1008.07 1008.78 1009.34 1010.44 1011.12 1011.82 1012.67 1012.63 1012.97 1013.94 1014.61 1014.96 1015.32 1015.57 1015.71 1015.71 1016.01 1016.35 1016.54 1016.67 1016.75 1016.87 1017.03 1017.27 1017.51 1017.39 1017.59 1017.93 1017.82 1017.99 1018.03 1018.07 1017.92 1018.01 1018.17 1018.38 1018.59
1004.48 1004.22 1003.90 1003.85 1003.58 1003.84 1004.59 1005.33 1006.19 1006.28 1006.68 1007.28 1007.62 1008.14 1008.86 1009.50 1010.70 1011.44 1012.08 1012.87 1013.41 1013.75 1013.97 1014.47 1014.77 1015.18 1015.32 1015.28 1015.70 1015.94 1016.21 1016.48 1016.63 1016.61 1016.73 1017.00 1017.30 1017.42 1017.47 1017.52 1017.64 1017.74 1017.68 1017.85 1017.96 1018.01 1018.02 1018.08 1018.22
1004.13 1003.88 1003.75 1003.31 1003.52 1003.69 1003.93 1004.67 1005.62 1005.73 1006.42 1007.33 1007.86 1008.42 1008.75 1009.23 1009.94 1010.65 1011.25 1012.14 1012.83 1013.31 1013.64 1014.31 1014.59 1014.96 1014.96 1015.05 1015.23 1015.58 1015.83 1016.01 1016.24 1016.39 1016.39 1016.62 1016.83 1017.09 1017.03 1016.98 1017.23 1017.38 1017.36 1017.59 1017.71 1017.91 1017.94 1017.78 1017.94
1004.11 1003.50 1003.71 1003.64 1003.59 1003.55 1004.13 1004.70 1004.95 1006.11 1006.26 1007.31 1007.81 1008.41 1008.93 1009.22 1009.56 1010.77 1011.11 1011.64 1012.25 1012.64 1012.93 1013.63 1014.07 1014.38 1014.62 1014.97 1015.07 1015.14 1015.32 1015.51 1015.77 1015.92 1015.91 1016.13 1016.36 1016.59 1016.76 1016.71 1016.87 1017.21 1017.15 1017.30 1017.40 1017.47 1017.56 1017.64 1017.76
1004.37 1003.86 1003.50 1003.35 1003.54 1003.63 1003.72 1004.83 1005.21 1005.75 1006.35 1007.17 1008.09 1008.63 1008.89 1008.58 1009.47 1010.05 1010.97 1010.90 1011.31 1011.54 1011.89 1012.57 1013.48 1014.02 1014.56 1014.52 1014.52 1014.70 1014.77 1015.11 1015.45 1015.35 1015.38 1015.56 1015.94 1016.23 1016.28 1016.44 1016.63 1016.72 1016.72 1016.91 1017.16 1017.13 1017.24 1017.45 1017.54
1005.16 1004.68 1004.63 1003.62 1003.51 1003.53 1004.10 1005.42 1005.33 1006.26 1006.79 1007.62 1008.28 1008.57 1008.49 1009.06 1009.78 1012.31 1012.93 1010.80 1011.35 1011.18 1011.43 1012.12 1012.76 1013.52 1014.03 1014.11 1014.12 1014.13 1014.30 1014.62 1014.84 1015.09 1015.03 1015.09 1015.29 1015.53 1015.87 1016.08 1016.20 1016.24 1016.48 1016.58 1016.90 1017.04 1017.28 1017.40 1017.51
1006.18 1005.73 1004.99 1004.38 1003.63 1003.91 1004.88 1006.28 1007.08 1006.83 1007.29 1008.55 1009.25 1009.58 1010.14 1009.58 1011.53 1012.15 1012.73 1013.13 1011.85 1011.65 1011.47 1012.25 1012.71 1012.90 1013.37 1013.61 1013.66 1013.70 1013.90 1014.24 1014.35 1014.45 1014.46 1014.37 1014.61 1014.86 1015.16 1015.44 1015.50 1015.82 1016.16 1016.56 1016.81 1017.01 1017.05 1017.15 1017.13
1007.06 1006.07 1004.90 1004.64 1004.35 1005.19 1006.13 1007.26 1007.30 1007.45 1007.96 1008.77 1009.03 1008.63 1009.26 1010.71 1011.56 1011.09 1011.72 1013.14 1011.90 1011.56 1011.34 1011.47 1012.49 1012.74 1012.87 1012.98 1013.32 1013.70 1014.08 1014.12 1013.90 1013.83 1013.81 1013.70 1013.98 1014.24 1014.64 1014.80 1015.04 1015.49 1016.03 1016.40 1016.58 1016.76 1016.87 1016.75 1016.76
1006.85 1006.53 1005.26 1004.86 1005.33 1006.20 1007.31 1007.73 1008.16 1008.48 1008.63 1009.30 1009.55 1009.98 1010.20 1010.76 1011.11 1012.19 1011.81 1012.01 1011.02 1010.62 1010.41 1011.23 1011.73 1012.46 1012.56 1013.08 1013.53 1013.88 1013.98 1013.93 1013.81 1013.48 1013.14 1013.22 1013.47 1013.89 1014.13 1014.31 1014.52 1014.73 1015.40 1015.58 1016.01 1016.33 1016.56 1016.39 1016.53
1006.44 1005.64 1005.00 1005.14 1005.48 1006.19 1007.78 1008.31 1008.33 1008.67 1009.08 1009.18 1009.26 1009.65 1010.36 1010.89 1011.18 1011.82 1011.61 1010.92 1010.46 1010.71 1010.80 1011.08 1011.81 1012.34 1012.22 1012.53 1012.83 1013.32 1013.49 1013.41 1013.28 1013.09 1012.93 1012.87 1013.18 1013.40 1013.70 1013.89 1014.12 1014.37 1014.77 1015.12 1015.42 1015.82 1016.05 1016.04 1016.30
1005.85 1004.93 1004.74 1005.44 1006.45 1007.16 1007.83 1009.36 1009.17 1008.75 1008.90 1008.94 1008.81 1008.68 1009.17 1010.17 1010.74 1011.12 1011.23 1010.87 1011.25 1011.23 1011.64 1011.18 1011.73 1011.84 1012.07 1012.32 1012.83 1013.23 1013.41 1013.42 1013.28 1012.95 1012.87 1012.60 1012.91 1013.52 1013.53 1013.55 1013.82 1014.06 1014.37 1014.64 1014.75 1015.15 1015.47 1015.58 1015.80
1004.92 1004.39 1004.73 1005.37 1006.60 1007.85 1008.49 1010.61 1010.29 1009.76 1009.77 1009.47 1008.60 1008.61 1008.94 1009.24 1009.83 1010.27 1010.73 1011.05 1010.69 1011.12 1011.62 1011.18 1011.86 1012.50 1012.28 1012.22 1012.74 1013.13 1013.24 1013.36 1012.88 1012.66 1012.28 1012.37 1012.41 1012.61 1012.89 1013.48 1013.60 1013.77 1013.92 1014.19 1014.24 1014.40 1014.71 1015.07 1015.41
1004.08 1004.20 1004.84 1005.53 1007.11 1008.43 1009.45 1010.48 1011.71 1010.81 1010.09 1010.09 1009.20 1008.60 1008.64 1008.79 1009.04 1009.56 1009.73 1010.08 1010.24 1010.74 1011.01 1011.24 1012.06 1012.32 1012.32 1012.53 1012.73 1013.13 1013.21 1012.82 1012.69 1012.44 1012.35 1012.50 1012.45 1012.67 1013.39 1013.36 1013.32 1013.56 1013.71 1013.76 1013.77 1013.92 1014.17 1014.26 1014.59
1003.24 1004.45 1005.67 1006.95 1008.26 1010.05 1010.78 1011.19 1011.94 1011.51 1011.11 1010.21 1009.45 1008.88 1008.62 1009.26 1009.03 1009.24 1009.26 1009.44 1009.95 1010.68 1011.09 1011.39 1012.06 1012.28 1012.23 1012.84 1012.85 1013.25 1013.37 1013.02 1012.64 1012.19 1012.26 1012.21 1011.79 1011.86 1012.18 1013.49 1013.61 1013.21 1013.59 1013.38 1013.30 1013.43 1013.62 1013.69 1013.95
1003.84 1005.84 1007.68 1009.17 1010.24 1011.50 1011.51 1011.44 1011.21 1010.39 1010.05 1009.87 1009.74 1009.19 1009.34 1009.20 1009.30 1009.46 1009.61 1009.64 1009.74 1010.40 1010.92 1011.54 1011.88 1011.96 1012.14 1012.65 1013.12 1013.20 1013.27 1013.00 1012.57 1012.14 1012.01 1011.86 1011.42 1011.81 1012.38 1012.64 1013.83 1013.42 1013.31 1013.06 1012.90 1012.98 1013.22 1013.30 1013.45
1004.34 1006.16 1008.11 1009.69 1011.40 1012.32 1011.91 1011.83 1010.31 1009.42 1008.67 1008.29 1008.63 1009.01 1009.38 1009.37 1009.41 1009.55 1009.92 1010.11 1010.15 1010.40 1010.65 1011.04 1011.49 1012.12 1012.41 1012.72 1013.05 1012.99 1013.05 1013.14 1012.69 1012.19 1011.58 1011.09 1011.16 1011.38 1011.97 1012.31 1011.06 1013.27 1013.14 1012.54 1012.66 1012.47 1012.60 1012.65 1012.80
1004.24 1005.75 1006.78 1008.92 1011.23 1012.69 1013.33 1012.68 1010.35 1008.47 1008.19 1008.21 1008.60 1008.80 1009.24 1009.35 1009.42 1009.66 1010.12 1010.41 1010.70 1010.84 1011.06 1011.34 1011.80 1012.13 1012.37 1012.52 1012.68 1012.90 1012.96 1012.82 1012.66 1012.34 1011.91 1011.31 1011.41 1011.55 1011.76 1011.59 1011.52 1012.83 1012.71 1012.17 1012.34 1012.16 1011.89 1012.10 1012.29
1003.58 1004.52 1006.73 1008.77 1011.40 1012.93 1013.50 1013.01 1011.20 1009.53 1009.09 1008.92 1008.56 1008.78 1009.01 1008.98 1009.39 1009.75 1010.14 1010.57 1010.87 1011.05 1011.32 1011.46 1011.63 1011.87 1012.09 1012.32 1012.53 1012.62 1012.49 1012.43 1012.37 1012.26 1012.22 1011.82 1011.75 1011.89 1011.81 1012.14 1012.45 1012.40 1012.07 1011.48 1011.94 1011.75 1011.46 1011.56 1011.53
1004.08 1004.85 1006.78 1008.86 1010.63 1012.31 1013.37 1011.80 1008.85 1008.49 1008.35 1009.08 1008.72 1008.93 1008.07 1008.81 1009.30 1009.69 1010.22 1010.63 1011.01 1011.25 1011.49 1011.63 1011.64 1011.81 1012.02 1012.12 1012.37 1012.43 1012.55 1012.51 1012.49 1012.33 1012.09 1011.94 1011.85 1011.81 1011.78 1012.05 1011.72 1011.72 1011.78 1011.73 1011.61 1011.40 1011.22 1011.18 1011.28
1004.02 1004.99 1006.74 1009.22 1011.12 1011.88 1011.33 1009.39 1007.43 1007.22 1007.60 1008.45 1008.40 1008.76 1008.20 1008.58 1009.27 1009.71 1010.07 1010.50 1011.05 1011.54 1011.79 1011.76 1011.78 1011.80 1011.90 1012.07 1012.22 1012.40 1012.47 1012.53 1012.39 1012.09 1011.94 1011.79 1011.66 1011.71 1011.74 1011.57 1011.50 1011.69 1011.82 1011.54 1011.22 1011.21 1010.85 1010.89 1010.95
Thickness
5843 5842 5842 5829 5781 5774 5767 5783 5818 5809 5809 5818 5825 5819 5809 5809 5794 5769 5808 5807 5800 5791 5786 5781 5779 5776 5773 5771 5772 5771 5771 5769 5767 5764 5763 5761 5759 5757 5756 5754 5752 5751 5751 5749 5747 5744 5743 5742 5743
5842 5838 5832 5819 5781 5755 5764 5794 5793 5811 5821 5825 5827 5819 5809 5793 5814 5805 5802 5805 5802 5794 5789 5784 5781 5778 5775 5773 5772 5771 5769 5768 5765 5762 5760 5759 5757 5756 5755 5753 5751 5749 5748 5747 5747 5746 5744 5741 5739
5842 5845 5818 5802 5787 5775 5775 5786 5787 5816 5823 5823 5822 5833 5820 5800 5811 5809 5812 5807 5800 5793 5789 5785 5782 5779 5776 5774 5772 5771 5768 5765 5763 5761 5760 5758 5757 5755 5754 5752 5751 5749 5748 5747 5746 5744 5745 5743 5739
5839 5833 5819 5790 5787 5807 5795 5788 5790 5809 5824 5835 5831 5813 5826 5832 5816 5816 5811 5805 5800 5793 5788 5784 5781 5780 5776 5773 5771 5769 5766 5765 5763 5762 5760 5759 5758 5756 5753 5751 5750 5749 5748 5746 5745 5744 5744 5744 5741
5842 5831 5805 5791 5794 5806 5806 5811 5812 5813 5819 5821 5825 5810 5808 5820 5823 5816 5809 5806 5800 5793 5787 5784 5781 5779 5776 5773 5770 5767 5766 5764 5762 5761 5760 5758 5758 5757 5754 5752 5750 5748 5749 5747 5746 5746 5744 5745 5742
5822 5822 5789 5779 5797 5811 5818 5819 5817 5819 5824 5817 5812 5812 5806 5824 5818 5814 5813 5805 5800 5795 5788 5784 5781 5779 5776 5773 5770 5767 5767 5765 5761 5760 5759 5757 5757 5757 5756 5753 5749 5748 5749 5749 5748 5747 5747 5744 5744
5817 5811 5799 5802 5801 5814 5819 5830 5823 5825 5816 5814 5826 5799 5804 5813 5820 5812 5808 5804 5800 5795 5790 5786 5782 5779 5777 5774 5772 5769 5766 5764 5762 5760 5759 5758 5756 5756 5756 5755 5752 5748 5749 5751 5750 5747 5748 5745 5743
5831 5815 5811 5811 5801 5808 5840 5836 5837 5830 5821 5841 5833 5796 5792 5817 5822 5812 5804 5802 5797 5793 5790 5788 5784 5781 5778 5776 5774 5770 5768 5767 5765 5764 5762 5761 5759 5757 5757 5756 5754 5750 5749 5750 5752 5749 5748 5747 5745
5858 5806 5797 5817 5820 5822 5845 5832 5843 5850 5833 5835 5836 5825 5823 5825 5825 5812 5798 5794 5790 5788 5788 5787 5784 5781 5779 5777 5775 5774 5772 5769 5768 5767 5765 5763 5762 5760 5756 5756 5757 5753 5752 5752 5752 5752 5749 5748 5747
5837 5813 5823 5846 5847 5832 5845 5845 5839 5832 5828 5826 5829 5832 5827 5818 5815 5806 5796 5789 5789 5787 5786 5787 5783 5780 5780 5778 5777 5776 5776 5774 5772 5769 5768 5764 5761 5761 5757 5758 5759 5757 5755 5755 5755 5753 5751 5750 5749
5848 5825 5850 5857 5862 5856 5846 5843 5848 5830 5819 5832 5822 5823 5823 5813 5813 5806 5799 5801 5800 5794 5789 5788 5785 5782 5781 5781 5780 5777 5776 5776 5774 5772 5770 5767 5764 5764 5762 5761 5763 5761 5759 5757 5757 5756 5755 5754 5752
5843 5858 5860 5861 5868 5864 5845 5851 5836 5843 5839 5846 5841 5836 5830 5821 5813 5807 5803 5800 5795 5791 5792 5790 5787 5784 5784 5786 5781 5780 5778 5777 5776 5775 5772 5770 5768 5767 5765 5765 5764 5763 5762 5761 5758 5757 5756 5756 5755
5852 5858 5863 5870 5866 5865 5866 5849 5840 5845 5852 5849 5844 5837 5832 5826 5822 5819 5814 5808 5802 5794 5791 5789 5788 5786 5784 5784 5784 5781 5780 5780 5779 5778 5775 5773 5772 5770 5770 5769 5766 5764 5765 5764 5762 5758 5756 5757 5757
5860 5866 5861 5865 5863 5866 5855 5850 5852 5845 5855 5844 5841 5832 5830 5828 5825 5812 5812 5805 5805 5801 5799 5792 5790 5788 5788 5785 5783 5783 5783 5783 5782 5781 5780 5776 5776 5773 5771 5770 5767 5764 5765 5765 5764 5764 5760 5759 5757
5856 5849 5857 5861 5865 5860 5871 5840 5836 5851 5851 5840 5834 5831 5830 5833 5826 5819 5810 5808 5808 5810 5809 5802 5793 5789 5788 5788 5787 5785 5786 5785 5783 5785 5784 5782 5779 5776 5775 5774 5769 5768 5769 5767 5765 5766 5764 5760 5758
5836 5839 5815 5851 5862 5870 5857 5814 5848 5847 5842 5833 5832 5831 5831 5826 5822 5794 5790 5810 5806 5808 5808 5804 5799 5791 5789 5790 5788 5788 5788 5788 5788 5787 5786 5784 5783 5781 5778 5778 5776 5773 5770 5769 5767 5766 5763 5762 5760
5816 5800 5818 5831 5866 5864 5849 5820 5831 5844 5839 5824 5815 5817 5795 5822 5802 5797 5790 5784 5800 5801 5806 5797 5795 5794 5791 5792 5790 5790 5788 5787 5789 5789 5789 5789 5788 5786 5783 5782 5781 5777 5773 5770 5768 5766 5764 5762 5763
5796 5809 5832 5824 5851 5841 5828 5819 5834 5839 5832 5823 5824 5832 5827 5812 5796 5807 5799 5787 5798 5792 5807 5806 5794 5793 5794 5794 5792 5790 5786 5785 5787 5790 5792 5794 5791 5788 5787 5786 5782 5778 5773 5770 5770 5767 5765 5765 5764
5814 5811 5824 5839 5843 5829 5817 5818 5823 5830 5828 5819 5817 5815 5812 5813 5811 5800 5799 5797 5807 5813 5814 5804 5802 5796 5793 5791 5786 5783 5781 5783 5785 5788 5793 5793 5792 5789 5788 5786 5785 5782 5777 5776 5773 5769 5766 5766 5767
5815 5821 5824 5841 5842 5835 5817 5815 5827 5828 5824 5824 5826 5820 5810 5811 5806 5801 5803 5810 5810 5811 5811 5808 5804 5798 5799 5796 5793 5787 5784 5785 5785 5787 5789 5790 5790 5790 5788 5786 5785 5784 5782 5778 5776 5771 5767 5769 5767
5814 5823 5828 5829 5829 5830 5821 5801 5813 5831 5830 5830 5829 5834 5828 5814 5806 5806 5811 5813 5806 5806 5803 5807 5804 5802 5801 5797 5792 5786 5783 5783 5782 5784 5785 5788 5786 5781 5782 5784 5783 5782 5781 5779 5779 5775 5770 5769 5771
5811 5846 5842 5842 5817 5781 5819 5757 5794 5803 5811 5817 5832 5830 5827 5826 5818 5817 5814 5807 5812 5808 5805 5807 5800 5795 5797 5796 5792 5785 5777 5774 5780 5782 5786 5785 5783 5780 5778 5776 5777 5778 5780 5777 5778 5780 5776 5772 5768
5830 5850 5846 5842 5812 5803 5802 5775 5781 5796 5802 5802 5820 5829 5830 5834 5824 5824 5824 5820 5819 5817 5812 5809 5799 5795 5796 5792 5791 5782 5774 5779 5781 5782 5780 5777 5774 5772 5768 5771 5771 5773 5776 5778 5778 5779 5778 5778 5773
5863 5843 5819 5808 5793 5763 5776 5777 5763 5775 5789 5802 5819 5826 5832 5821 5826 5827 5831 5829 5822 5818 5813 5809 5801 5796 5795 5788 5786 5781 5776 5776 5777 5779 5773 5770 5772 5769 5766 5758 5762 5770 5770 5775 5777 5779 5779 5779 5778
5837 5797 5755 5761 5752 5746 5775 5775 5776 5802 5810 5812 5810 5818 5819 5821 5822 5820 5822 5820 5821 5815 5812 5806 5801 5796 5794 5789 5784 5779 5774 5773 5774 5774 5768 5762 5763 5760 5757 5751 5752 5761 5765 5774 5776 5777 5777 5777 5777
5823 5799 5756 5747 5743 5742 5770 5768 5789 5813 5823 5830 5824 5823 5820 5818 5821 5820 5817 5815 5816 5815 5812 5809 5802 5794 5791 5786 5780 5778 5773 5767 5767 5767 5765 5760 5756 5757 5758 5751 5756 5754 5758 5771 5774 5775 5776 5777 5777
5819 5801 5815 5777 5770 5742 5736 5759 5793 5820 5817 5823 5819 5820 5816 5817 5820 5819 5815 5812 5808 5807 5806 5802 5796 5790 5786 5783 5779 5774 5770 5766 5762 5760 5758 5757 5753 5754 5754 5759 5755 5750 5756 5766 5770 5771 5776 5775 5774
5833 5841 5796 5778 5738 5735 5734 5740 5752 5786 5799 5806 5814 5815 5816 5819 5818 5817 5814 5810 5808 5805 5801 5800 5798 5792 5788 5783 5779 5775 5772 5768 5764 5759 5751 5751 5750 5748 5750 5749 5747 5749 5755 5764 5763 5768 5773 5772 5772
5818 5809 5795 5781 5764 5732 5710 5736 5794 5799 5806 5799 5809 5816 5826 5821 5818 5817 5813 5809 5807 5804 5800 5797 5794 5790 5787 5784 5777 5773 5770 5766 5761 5758 5754 5750 5749 5748 5747 5743 5744 5742 5749 5755 5759 5764 5766 5768 5767
5833 5821 5788 5762 5754 5743 5746 5759 5820 5822 5816 5810 5810 5813 5823 5825 5819 5815 5813 5807 5803 5798 5794 5793 5792 5788 5784 5780 5776 5771 5768 5763 5759 5758 5757 5754 5751 5751 5748 5748 5748 5744 5745 5749 5755 5758 5760 5762 5765